Rolla, ND

1:43 PM CDT on September 27, 2016 (GMT -0500)
Rolla

Weather History for K06D - October, 2012

Change the Weather History Date:

Friday, October 12, 2012

  Actual Average (KRUG) Record (KRUG)
Temperature  
Mean Temperature 34 °F -  
Max Temperature 50 °F 57 °F 81 °F (1956)
Min Temperature 19 °F 33 °F 17 °F (1993)
Degree Days  
Heating Degree Days 30    
Moisture  
Dew Point 24 °F    
Average Humidity 64    
Maximum Humidity 93    
Minimum Humidity 37    
Precipitation  
Precipitation 0.00 in - - ()
Sea Level Pressure  
Sea Level Pressure 29.99 in    
Wind  
Wind Speed 13 mph (South)    
Max Wind Speed 30 mph    
Max Gust Speed 45 mph    
Visibility 10 miles    
Events      
Averages and records for this station are not official NWS values.
T = Trace of Precipitation, MM = Missing Value Source: NWS Daily Summary

Daily Weather History Graph

Daily Weather History Graph

Search for Another Location

Airport or City:

Trip Planner

Search our weather history database for the weather conditions in past years. The results will help you decide how hot, cold, wet, or windy it might be!

Date:

Astronomy

Oct. 12, 2012 Rise Set
Actual Time 7:55 AM CDT 6:53 PM CDT
Civil Twilight 7:23 AM CDT 7:25 PM CDT
Nautical Twilight 6:46 AM CDT 8:01 PM CDT
Astronomical Twilight 6:10 AM CDT 8:38 PM CDT
Moon 4:26 AM CDT (10/12) 5:14 PM CDT (10/12)
Length of Visible Light 12h 01m
Length of Day
10h 58m
Waning Crescent, 10% of the Moon is Illuminated
Oct 12
Waning Crescent
Oct 15
New
Oct 21
First Quarter
Oct 29
Full
Nov 6
Last Quarter

Hourly Weather History & Observations

Time (CDT) Temp. Windchill Dew Point Humidity Pressure Visibility Wind Dir Wind Speed Gust Speed Precip Events Conditions
12:35 AM 24.8 °F 16.1 °F 19.4 °F 80% 30.30 in 10.0 mi SSW 8.1 mph - N/A   Clear
12:55 AM 24.8 °F 17.9 °F 17.6 °F 74% 30.29 in 10.0 mi South 5.8 mph - N/A   Clear
1:15 AM 23.0 °F 15.8 °F 17.6 °F 80% 30.29 in 10.0 mi SSW 5.8 mph - N/A   Clear
1:35 AM 23.0 °F 14.7 °F 17.6 °F 80% 30.28 in 10.0 mi SSW 6.9 mph - N/A   Clear
1:55 AM 24.8 °F 16.9 °F 19.4 °F 80% 30.28 in 10.0 mi SSW 6.9 mph - N/A   Clear
2:15 AM 26.6 °F 19.1 °F 21.2 °F 80% 30.27 in 10.0 mi SSW 6.9 mph - N/A   Clear
2:35 AM 24.8 °F 16.1 °F 19.4 °F 80% 30.27 in 10.0 mi SSW 8.1 mph - N/A   Partly Cloudy
2:55 AM 23.0 °F 14.7 °F 19.4 °F 86% 30.27 in 10.0 mi SSW 6.9 mph - N/A   Clear
3:15 AM 23.0 °F 14.7 °F 19.4 °F 86% 30.24 in 10.0 mi South 6.9 mph - N/A   Clear
3:35 AM 19.4 °F 10.4 °F 17.6 °F 93% 30.24 in 10.0 mi SSW 6.9 mph - N/A   Clear
3:55 AM 21.2 °F 12.6 °F 19.4 °F 93% 30.23 in 10.0 mi South 6.9 mph - N/A   Mostly Cloudy
4:15 AM 21.2 °F 14.9 °F 19.4 °F 93% 30.22 in 10.0 mi South 4.6 mph - N/A   Partly Cloudy
4:35 AM 19.4 °F 11.5 °F 17.6 °F 93% 30.23 in 10.0 mi SSW 5.8 mph - N/A   Clear
4:55 AM 23.0 °F 15.8 °F 19.4 °F 86% 30.23 in 10.0 mi South 5.8 mph - N/A   Partly Cloudy
5:15 AM 23.0 °F 13.9 °F 19.4 °F 86% 30.23 in 10.0 mi South 8.1 mph - N/A   Scattered Clouds
5:55 AM 26.6 °F 15.7 °F 21.2 °F 80% 30.20 in 10.0 mi South 12.7 mph - N/A   Overcast
6:15 AM 26.6 °F 16.2 °F 23.0 °F 86% 30.19 in 10.0 mi South 11.5 mph - N/A   Overcast
6:35 AM 28.4 °F 19.1 °F 23.0 °F 80% 30.18 in 10.0 mi South 10.4 mph 17.3 mph N/A   Overcast
6:55 AM 28.4 °F 17.5 °F 23.0 °F 80% 30.16 in 10.0 mi South 13.8 mph - N/A   Overcast
7:15 AM 28.4 °F 17.5 °F 23.0 °F 80% 30.15 in 10.0 mi South 13.8 mph - N/A   Overcast
7:35 AM 28.4 °F 17.5 °F 24.8 °F 86% 30.15 in 10.0 mi South 13.8 mph 20.7 mph N/A   Overcast
7:55 AM 30.2 °F 18.9 °F 24.8 °F 80% 30.14 in 10.0 mi South 16.1 mph - N/A   Overcast
8:15 AM 30.2 °F 19.3 °F 24.8 °F 80% 30.14 in 10.0 mi South 15.0 mph 19.6 mph N/A   Overcast
8:35 AM 32.0 °F 22.1 °F 24.8 °F 75% 30.12 in 10.0 mi South 13.8 mph - N/A   Overcast
9:15 AM 32.0 °F 21.6 °F 24.8 °F 75% 30.10 in 10.0 mi South 15.0 mph 21.9 mph N/A   Overcast
9:35 AM 32.0 °F 22.1 °F 24.8 °F 75% 30.10 in 10.0 mi South 13.8 mph 18.4 mph N/A   Overcast
9:55 AM 32.0 °F 21.2 °F 24.8 °F 75% 30.09 in 10.0 mi South 16.1 mph 23.0 mph N/A   Overcast
10:15 AM 33.8 °F 24.3 °F 26.6 °F 75% 30.08 in 10.0 mi South 13.8 mph 18.4 mph N/A   Overcast
10:35 AM 35.6 °F 26.2 °F 26.6 °F 70% 30.07 in 10.0 mi South 15.0 mph - N/A   Overcast
11:15 AM 37.4 °F 27.8 °F 24.8 °F 60% 30.03 in 10.0 mi South 17.3 mph 28.8 mph N/A   Mostly Cloudy
11:35 AM 41.0 °F 32.2 °F 26.6 °F 57% 30.02 in 10.0 mi South 18.4 mph 28.8 mph N/A   Clear
12:15 PM 42.8 °F 32.7 °F 26.6 °F 53% 29.98 in 10.0 mi SSW 27.6 mph 35.7 mph N/A   Clear
12:35 PM 44.6 °F 35.1 °F 26.6 °F 49% 29.97 in 10.0 mi South 27.6 mph 33.4 mph N/A   Clear
12:55 PM 44.6 °F 36.1 °F 28.4 °F 53% 29.96 in 10.0 mi South 21.9 mph 33.4 mph N/A   Clear
1:55 PM 46.4 °F 37.9 °F 30.2 °F 53% 29.91 in 10.0 mi SSW 25.3 mph 32.2 mph N/A   Clear
2:15 PM 48.2 °F - 28.4 °F 46% 29.89 in 10.0 mi South 27.6 mph 38.0 mph N/A   Clear
2:55 PM 48.2 °F - 28.4 °F 46% 29.85 in 10.0 mi South 24.2 mph 35.7 mph N/A   Clear
3:15 PM 50.0 °F - 28.4 °F 43% 29.84 in 10.0 mi SSW 29.9 mph 39.1 mph N/A   Clear
3:35 PM 50.0 °F - 28.4 °F 43% 29.83 in 10.0 mi SSW 29.9 mph 44.9 mph N/A   Clear
3:55 PM 50.0 °F - 26.6 °F 40% 29.82 in 10.0 mi South 29.9 mph 42.6 mph N/A   Clear
4:15 PM 50.0 °F - 26.6 °F 40% 29.81 in 10.0 mi SSW 27.6 mph 40.3 mph N/A   Clear
4:35 PM 50.0 °F - 26.6 °F 40% 29.80 in 10.0 mi South 26.5 mph 40.3 mph N/A   Clear
4:55 PM 50.0 °F - 26.6 °F 40% 29.79 in 10.0 mi South 27.6 mph 38.0 mph N/A   Clear
5:15 PM 50.0 °F - 24.8 °F 37% 29.79 in 10.0 mi South 26.5 mph 34.5 mph N/A   Clear
5:55 PM 50.0 °F - 24.8 °F 37% 29.77 in 10.0 mi South 23.0 mph 31.1 mph N/A   Clear
6:15 PM 50.0 °F - 26.6 °F 40% 29.76 in 10.0 mi South 23.0 mph 29.9 mph N/A   Clear
6:35 PM 48.2 °F - 26.6 °F 43% 29.76 in 10.0 mi South 19.6 mph 26.5 mph N/A   Clear
6:55 PM 46.4 °F 39.2 °F 26.6 °F 46% 29.75 in 10.0 mi South 18.4 mph 25.3 mph N/A   Clear
7:15 PM 46.4 °F 39.0 °F 24.8 °F 43% 29.75 in 10.0 mi South 19.6 mph - N/A   Clear
7:35 PM 44.6 °F 36.9 °F 24.8 °F 46% 29.75 in 10.0 mi South 18.4 mph 24.2 mph N/A   Partly Cloudy
7:55 PM 44.6 °F 37.2 °F 24.8 °F 46% 29.74 in 10.0 mi South 17.3 mph - N/A   Scattered Clouds
8:15 PM 42.8 °F 35.4 °F 24.8 °F 49% 29.74 in 10.0 mi South 15.0 mph - N/A   Mostly Cloudy
8:35 PM 42.8 °F 35.1 °F 24.8 °F 49% 29.73 in 10.0 mi South 16.1 mph - N/A   Overcast
9:15 PM 41.0 °F 33.1 °F 24.8 °F 53% 29.71 in 10.0 mi South 15.0 mph - N/A   Overcast
9:35 PM 41.0 °F 33.1 °F 24.8 °F 53% 29.70 in 10.0 mi South 15.0 mph 20.7 mph N/A   Overcast
9:55 PM 39.2 °F 31.6 °F 24.8 °F 56% 29.70 in 10.0 mi South 12.7 mph - N/A   Overcast
10:15 PM 39.2 °F 31.2 °F 23.0 °F 52% 29.69 in 10.0 mi South 13.8 mph 19.6 mph N/A   Overcast
10:55 PM 37.4 °F 30.3 °F 23.0 °F 56% 29.69 in 10.0 mi South 10.4 mph - N/A   Overcast
11:35 PM 33.8 °F 27.0 °F 23.0 °F 65% 29.69 in 10.0 mi SSW 8.1 mph - N/A   Overcast
11:55 PM 35.6 °F 29.2 °F 23.0 °F 60% 29.69 in 10.0 mi SSW 8.1 mph - N/A   Overcast